This demonstration page uses our WeatherBlox Daily Observations layout. Learn more.

Left ArrowRight Arrow

Hourly Observations for September 14, 2015

Temp ( °F °C ) Dew Point ( °F °C ) Humidity (%) Winds ( mph kmh ) Pressure ( in mb ) Visibility ( mi km ) Precip ( " mm )
12:53 am 00:53 Clear 48 8.9 46 7.8 93 93 Calm 30.11 1020 10 16.0934 0 0
1:53 am 01:53 Clear 47 8.3 46 7.8 97 97 Calm 30.12 1020 10 16.0934 0 0
2:53 am 02:53 Clear 46 7.8 45 7.2 96 96 Calm 30.14 1021 8 12.87472 0 0
3:53 am 03:53 Clear 46 7.8 44 6.7 93 93 Calm 30.15 1021 9 14.48406 0 0
4:53 am 04:53 Clear 45 7.2 44 6.7 97 97 Calm 30.16 1021 7 11.26538 0 0
5:53 am 05:53 Clear 45 7.2 44 6.7 97 97 Calm 30.18 1022 7 11.26538 0 0
6:53 am 06:53 Clear 45 7.2 43 6.1 93 93 Calm 30.2 1023 9 14.48406 0 0
7:53 am 07:53 Sunny 46 7.8 44 6.7 93 93 Calm 30.22 1024 8 12.87472 0 0
8:53 am 08:53 Sunny 54 12.2 51 10.6 90 90 Calm 30.24 1024 8 12.87472 0 0
9:53 am 09:53 Sunny 60 15.6 51 10.6 72 72 Calm 30.26 1025 10 16.0934 0 0
10:53 am 10:53 Sunny 67 19.4 51 10.6 57 57 VRB 5 7 30.27 1025 10 16.0934 0 0
11:53 am 11:53 Sunny 70 21.1 48 8.9 46 46 VRB 7 11 30.27 1025 10 16.0934 0 0
12:53 pm 12:53 Sunny 72 22.2 49 9.4 44 44 VRB 3 6 30.26 1025 10 16.0934 0 0
1:53 pm 13:53 Sunny 74 23.3 47 8.3 38 38 VRB 7 11 30.24 1024 10 16.0934 0 0
2:53 pm 14:53 Sunny 76 24.4 49 9.4 39 39 SW 7 11 30.23 1024 10 16.0934 0 0
3:53 pm 15:53 Sunny 75 23.9 48 8.9 39 39 VRB 6 9 30.22 1023 10 16.0934 0 0
4:53 pm 16:53 Sunny 76 24.4 50 10 40 40 SSW 7 11 30.21 1023 10 16.0934 0 0
5:53 pm 17:53 Sunny 75 23.9 49 9.4 40 40 VRB 3 6 30.2 1023 10 16.0934 0 0
6:53 pm 18:53 Sunny 73 22.8 51 10.6 46 46 SW 3 6 30.2 1023 10 16.0934 0 0
7:53 pm 19:53 Clear 62 16.7 54 12.2 75 75 Calm 30.2 1023 10 16.0934 0 0
8:53 pm 20:53 Clear 57 13.9 53 11.7 87 87 Calm 30.21 1023 10 16.0934 0 0
9:53 pm 21:53 Clear 55 12.8 52 11.1 90 90 Calm 30.24 1024 10 16.0934 0 0
10:53 pm 22:53 Clear 53 11.7 51 10.6 93 93 Calm 30.24 1024 10 16.0934 0 0
11:53 pm 23:53 Clear 52 11.1 50 10 93 93 Calm 30.25 1024 10 16.0934 0 0

Powered by AerisWeather